[[{"header":{"parameterUnit":"m.s-1","parameterCategory":1,"la1":30.2991,"la2":30.254,"lo1":-89.0895,"lo2":-89.0444,"dy":0.0017,"dx":0.0017,"nx":28,"ny":28,"refTime":"2024-03-30T03:00:00:Z","depth":0,"parameterNumber":2,"parameterNumberName":"U-component_of_WINDS"},"data":[0,0,0,0,0,0,0,0,0,0,0,0,0,0,0,0,0,0,0,0,0,0,0,0,0,0,0,0,0,0,0,0,0,0,0,0,0,0,0,0,0,0,0,0,0,0,0,0,0,0,0,0,0,0,0,0,0,0,0.067,0.067,0,0.0672,0.0672,0.0672,0.0671,0.0671,0.0671,0.0671,0.0674,0.0674,0.0674,0,0,0,0,0,0,0,0,0,0,0,0,0,0.0664,0.0664,0.067,0.067,0.067,0.0672,0.0672,0.0672,0.0671,0.0671,0.0671,0.0671,0.0674,0.0674,0.0674,0,0,0,0,0,0,0,0,0,0,0,0,0,0.0666,0.0664,0.067,0.067,0.067,0.0672,0.0672,0.0672,0.0671,0.0671,0.0671,0.0671,0.0674,0.0674,0.0674,0.0676,0,0,0.0675,0.0675,0,0,0,0,0,0,0,0,0.0666,0.0666,0.067,0.067,0.067,0.0671,0.0671,0.0673,0.0671,0.0671,0.0671,0.0671,0.0673,0.0673,0.0674,0.0677,0.0677,0.0675,0.0675,0.0675,0.0675,0,0,0,0,0,0,0,0.0666,0.0666,0.0671,0.067,0.067,0.0669,0.0669,0.0671,0.0672,0.0671,0.0671,0.0671,0.0673,0.0674,0.0674,0.0677,0.0675,0.0675,0.0675,0.0675,0.0679,0.0679,0,0,0,0,0,0,0.0666,0.0666,0.067,0.0671,0.0668,0.0669,0.067,0.0671,0.0672,0.0672,0.0671,0.0671,0.0673,0.0674,0.0674,0.0676,0.0675,0.0675,0.0675,0.0679,0.0679,0.0679,0,0,0,0,0,0,0.0665,0.0666,0.067,0.0668,0.0669,0.067,0.0671,0.0671,0.0672,0.0672,0.0673,0.0672,0.0673,0.0674,0.0675,0.0676,0.0675,0.0675,0.0679,0.0679,0.0679,0.068,0,0,0,0,0,0,0.0665,0.0666,0.0667,0.0668,0.0669,0.0672,0.0671,0.0671,0.0672,0.0672,0.0673,0.0673,0.0673,0.0675,0.0675,0.0676,0.0675,0.0679,0.0679,0.0679,0.0679,0.068,0.068,0,0,0,0,0,0.0665,0.0668,0.0667,0.0668,0.0671,0.0672,0.0673,0.0673,0.0672,0.0673,0.0673,0.0673,0.0675,0.0675,0.0676,0.0676,0.0679,0.0679,0.0679,0.0679,0.068,0.068,0,0,0,0,0,0,0.0668,0.0668,0.0668,0.0671,0.0671,0.0672,0.0674,0.0673,0.0674,0.0674,0.0674,0.0674,0.0675,0.0676,0.0676,0.0677,0.0677,0.0677,0.0677,0.0677,0.0677,0.0677,0.0675,0,0,0,0,0,0.0668,0.067,0.067,0.0673,0.0673,0.0673,0.0674,0.0674,0.0674,0.0675,0.0675,0.0676,0.0676,0.0677,0.0678,0.0679,0.0679,0.068,0.068,0.068,0.068,0.0679,0.0679,0.0679,0.0679,0.0679,0,0,0.067,0.0671,0.0672,0.0673,0.0674,0.0674,0.0673,0.0675,0.0675,0.0675,0.0676,0.0676,0.0677,0.0678,0.0678,0.0678,0.068,0.068,0.068,0.068,0.0679,0.0679,0.0679,0.0679,0.0679,0.0679,0,0,0.0674,0.0675,0.0677,0.0677,0.0677,0.0677,0.0677,0.0677,0.0677,0.0678,0.0677,0.0677,0.0679,0.0679,0.0679,0.068,0.068,0.068,0.0681,0.068,0.068,0.068,0.068,0.0679,0.0681,0.0681,0.0681,0,0.0677,0.0678,0.0678,0.0679,0.0679,0.0677,0.0678,0.0679,0.0679,0.0679,0.0679,0.0679,0.068,0.068,0.068,0.068,0.068,0.0681,0.068,0.068,0.068,0.068,0.0679,0.0681,0.0681,0.0681,0.0681,0,0.0681,0.0682,0.0683,0.0682,0.0683,0.0684,0.0682,0.0683,0.0682,0.0681,0.0681,0.0681,0.0681,0.0681,0.0681,0.0681,0.0681,0.068,0.068,0.068,0.068,0.0679,0.0681,0.0681,0.0681,0.0681,0,0,0.0688,0.0686,0.0686,0.0685,0.0684,0.0685,0.0685,0.0684,0.0684,0.0684,0.0683,0.0683,0.0682,0.0682,0.0682,0.0681,0.0681,0.0681,0.0681,0.068,0.0679,0.0679,0.0679,0.068,0.068,0.068,0.0679,0,0.0691,0.0691,0.069,0.069,0.069,0.0688,0.0688,0.0687,0.0686,0.0685,0.0684,0.0684,0.0683,0.0683,0.0682,0.0681,0.068,0.0681,0.0679,0.0679,0.0679,0.0679,0.0679,0.0678,0.0678,0.0678,0.0678,0,0.0695,0.0694,0.0695,0.0692,0.0692,0.0692,0.069,0.069,0.0688,0.0687,0.0686,0.0685,0.0684,0.0683,0.0681,0.0682,0.068,0.0679,0.0679,0.0679,0.0679,0.0678,0.0678,0.0677,0.0678,0.0678,0.0678,0,0.0699,0.0698,0.0698,0.0697,0.0694,0.0694,0.0693,0.0691,0.069,0.0688,0.0687,0.0686,0.0685,0.0683,0.0681,0.0681,0.0679,0.0678,0.0677,0.0677,0.0677,0.0677,0.0677,0.0677,0.0677,0.0677,0.0677,0,0.0703,0.0703,0.0699,0.0699,0.0698,0.0696,0.0695,0.0694,0.0692,0.0691,0.0689,0.0687,0.0685,0.0683,0.0681,0.0679,0.0679,0.0678,0.0677,0.0678,0.0678,0.0677,0.0677,0.0677,0.0677,0.0677,0.0677,0,0.0708,0.0705,0.0704,0.0701,0.07,0.07,0.0697,0.0696,0.0694,0.0692,0.0692,0.0689,0.0686,0.0684,0.0681,0.0679,0.0677,0.0676,0.0677,0.0677,0.0676,0.0676,0.0674,0.0674,0.0675,0.0675,0.0675,0,0.071,0.071,0.0706,0.0705,0.0704,0.0702,0.0701,0.0698,0.0696,0.0693,0.0692,0.0689,0.0687,0.0683,0.068,0.0677,0.0676,0.0676,0.0676,0.0676,0.0675,0.0675,0.0675,0.0676,0.0676,0.0676,0.0676,0,0.0715,0.0713,0.0711,0.0708,0.0706,0.0704,0.0702,0.0701,0.0697,0.0695,0.0692,0.0691,0.0686,0.0683,0.068,0.0678,0.0676,0.0676,0.0675,0.0676,0.0676,0.0675,0.0677,0.0676,0.0676,0.0676,0.0676,0.0676,0.0718,0.0717,0.0714,0.0711,0.0709,0.0706,0.0704,0.0702,0.0699,0.0695,0.0694,0.069,0.0687,0.0681,0.0679,0.0676,0.0676,0.0675,0.0675,0.0675,0.0675,0.0677,0.0676,0.0676,0.0676,0.0676,0.0676,0,0.0722,0.0719,0.0716,0.0712,0.071,0.0708,0.0705,0.0703,0.07,0.0696,0.0693,0.0689,0.0686,0.0682,0.0678,0.0676,0.0675,0.0675,0.0675,0.0674,0.0676,0.0676,0.0676,0.0676,0.0676,0.0676,0.0676,0.0676,0.0723,0.0721,0.0718,0.0714,0.0712,0.0708,0.0706,0.0703,0.07,0.0695,0.0692,0.069,0.0685,0.0681,0.0677,0.0676,0.0674,0.0674,0.0673,0.0674,0.0674,0.0674,0.0675,0.0674,0.0674,0.0671,0.0671,0.0671]},{"header":{"parameterUnit":"m.s-1","parameterCategory":1,"la1":30.2991,"la2":30.254,"lo1":-89.0895,"lo2":-89.0444,"dy":0.0017,"dx":0.0017,"nx":28,"ny":28,"refTime":"2024-03-30T03:00:00:Z","depth":0,"parameterNumber":3,"parameterNumberName":"V-component_of_WINDS"},"data":[0,0,0,0,0,0,0,0,0,0,0,0,0,0,0,0,0,0,0,0,0,0,0,0,0,0,0,0,0,0,0,0,0,0,0,0,0,0,0,0,0,0,0,0,0,0,0,0,0,0,0,0,0,0,0,0,0,0,2.6579,2.658,0,2.6665,2.6666,2.6667,2.6673,2.6672,2.6671,2.667,2.6753,2.6756,2.6759,0,0,0,0,0,0,0,0,0,0,0,0,0,2.6414,2.6417,2.6579,2.658,2.6581,2.6665,2.6666,2.6667,2.6673,2.6672,2.6671,2.6669,2.6752,2.6755,2.6759,0,0,0,0,0,0,0,0,0,0,0,0,0,2.6491,2.6418,2.6579,2.6594,2.6597,2.6665,2.6666,2.6668,2.6673,2.6672,2.667,2.6669,2.6751,2.6755,2.676,2.6817,0,0,2.6774,2.6776,0,0,0,0,0,0,0,0,2.6487,2.6497,2.6591,2.6593,2.6596,2.6657,2.6638,2.6718,2.6673,2.6644,2.667,2.6668,2.6722,2.6729,2.6748,2.6821,2.6824,2.6774,2.6777,2.6779,2.678,0,0,0,0,0,0,0,2.6482,2.6494,2.6613,2.6592,2.6595,2.6595,2.6604,2.6653,2.669,2.6646,2.6647,2.6657,2.6723,2.6743,2.675,2.6826,2.6774,2.6778,2.6781,2.6783,2.6949,2.6951,0,0,0,0,0,0,2.6474,2.6489,2.661,2.6616,2.6537,2.6599,2.661,2.6639,2.6689,2.6696,2.6658,2.6657,2.6736,2.6744,2.6753,2.6823,2.6779,2.6783,2.6786,2.6948,2.695,2.6951,0,0,0,0,0,0,2.6471,2.6485,2.6607,2.6553,2.6568,2.6604,2.6636,2.6641,2.6662,2.6698,2.6704,2.6673,2.6735,2.6746,2.6801,2.6826,2.6785,2.679,2.6946,2.6948,2.695,2.6965,0,0,0,0,0,0,2.6466,2.6484,2.6507,2.6553,2.6571,2.6656,2.6638,2.6644,2.667,2.667,2.6714,2.672,2.6735,2.6794,2.6806,2.6832,2.6793,2.6944,2.6947,2.695,2.6962,2.6967,2.6972,0,0,0,0,0,2.646,2.6507,2.6508,2.6523,2.6602,2.6657,2.6667,2.6686,2.6672,2.6696,2.6719,2.6718,2.6821,2.68,2.6813,2.6841,2.6942,2.6946,2.6949,2.696,2.6966,2.6972,0,0,0,0,0,0,2.6461,2.6513,2.6516,2.6579,2.6614,2.6658,2.6688,2.6692,2.673,2.6727,2.6746,2.6756,2.6811,2.6831,2.6806,2.6898,2.688,2.6886,2.6884,2.689,2.6895,2.6889,2.6797,0,0,0,0,0,2.6469,2.6512,2.6554,2.6606,2.6623,2.6653,2.6677,2.6688,2.6725,2.6739,2.6766,2.68,2.684,2.6866,2.6904,2.6965,2.6974,2.699,2.6995,2.6998,2.7004,2.7037,2.7045,2.6963,2.6963,2.6963,0,0,2.6485,2.6519,2.6544,2.6607,2.6635,2.6677,2.6665,2.671,2.6741,2.6745,2.68,2.6821,2.6859,2.6917,2.6944,2.6936,2.7028,2.7003,2.7006,2.701,2.7042,2.7049,2.7056,2.6966,2.6965,2.6965,0,0,2.6537,2.6567,2.6613,2.6642,2.6686,2.6705,2.6716,2.676,2.6774,2.683,2.6834,2.6869,2.6938,2.6965,2.6988,2.7049,2.705,2.7061,2.7086,2.7118,2.7124,2.713,2.7152,2.716,2.7066,2.7066,2.7066,0,2.6551,2.6617,2.6636,2.6682,2.6709,2.6716,2.6762,2.6788,2.6842,2.6859,2.6849,2.6936,2.6962,2.7026,2.7041,2.7059,2.7072,2.7056,2.7122,2.7128,2.7134,2.7155,2.7163,2.7067,2.7067,2.7067,2.7067,0,2.6632,2.6677,2.6709,2.6763,2.6793,2.6838,2.6863,2.6891,2.6899,2.6918,2.6973,2.7005,2.7051,2.7066,2.7074,2.7132,2.7125,2.7118,2.7101,2.7142,2.7162,2.7171,2.7069,2.7068,2.7068,2.7068,0,0,2.6688,2.6752,2.6763,2.6787,2.6835,2.687,2.6914,2.6961,2.6984,2.7019,2.7057,2.7115,2.7109,2.7135,2.7145,2.7173,2.7219,2.7163,2.7164,2.7172,2.7284,2.729,2.7299,2.7219,2.7221,2.7222,2.7281,0,2.6745,2.6828,2.6847,2.6917,2.6959,2.6965,2.7004,2.7037,2.7056,2.7092,2.7112,2.7153,2.7142,2.7158,2.7186,2.7208,2.7242,2.7203,2.7253,2.7255,2.7245,2.7309,2.7316,2.737,2.7289,2.729,2.7291,0,2.6824,2.6864,2.6939,2.6982,2.6999,2.7035,2.7078,2.7113,2.7149,2.7161,2.719,2.7197,2.7242,2.7221,2.7283,2.7257,2.7278,2.7291,2.7294,2.73,2.7277,2.7318,2.7388,2.7396,2.7304,2.7303,2.7302,0,2.6858,2.6929,2.6984,2.7004,2.7055,2.7079,2.7101,2.7137,2.7163,2.72,2.7217,2.7258,2.728,2.7311,2.7328,2.7311,2.7389,2.7369,2.7399,2.7398,2.7416,2.7415,2.7491,2.7428,2.7428,2.7427,2.7427,0,2.692,2.6966,2.7,2.7034,2.7084,2.7104,2.7153,2.7175,2.7206,2.7242,2.7249,2.7283,2.7303,2.7339,2.7353,2.7402,2.7411,2.7421,2.7425,2.7422,2.742,2.7436,2.7433,2.743,2.7429,2.7429,2.7428,0,2.6967,2.6992,2.7052,2.7095,2.7107,2.7143,2.7179,2.7211,2.7229,2.7275,2.7287,2.7316,2.7359,2.7379,2.7431,2.744,2.7496,2.7496,2.7484,2.7486,2.7515,2.7512,2.7605,2.7618,2.7545,2.7546,2.7546,0,2.7006,2.7042,2.7089,2.7115,2.7139,2.718,2.7207,2.7227,2.7254,2.7298,2.7324,2.7368,2.7404,2.7471,2.7496,2.7536,2.7537,2.7567,2.7543,2.7539,2.7538,2.7536,2.754,2.7571,2.7572,2.7573,2.7573,0,2.7073,2.7083,2.7123,2.7168,2.72,2.7236,2.727,2.729,2.7315,2.7345,2.739,2.7418,2.7472,2.7515,2.7556,2.7577,2.7579,2.758,2.7589,2.7587,2.7579,2.7584,2.7497,2.7578,2.7578,2.7577,2.7577,2.7577,2.7117,2.7149,2.7188,2.7232,2.7261,2.7293,2.7325,2.7348,2.7387,2.7434,2.7442,2.7489,2.7523,2.758,2.7601,2.7637,2.763,2.7643,2.7647,2.765,2.7652,2.7573,2.7645,2.7645,2.7645,2.7644,2.7644,0,2.7185,2.721,2.7251,2.73,2.7334,2.7334,2.7372,2.74,2.7443,2.7475,2.7511,2.7562,2.7603,2.7631,2.7672,2.7695,2.7697,2.7706,2.7704,2.7709,2.7656,2.7644,2.7703,2.7703,2.7703,2.7703,2.7703,2.7703,2.7224,2.7279,2.7293,2.7361,2.7385,2.7434,2.7455,2.7484,2.7511,2.7568,2.7603,2.7621,2.7651,2.7695,2.7732,2.7739,2.7754,2.7763,2.7769,2.7719,2.7713,2.7707,2.7696,2.7766,2.7766,2.782,2.782,2.7821]}]]